Regional Weather Roundup
Issued by NWS

Home | Current Version | Previous Version | Graphics & Text | Print | Product List | Glossary On
Versions: 1 2 3 4 5 6 7 8 9 10 11 12 13 14 15 16 17 18 19 20 21 22 23 24 25 26 27 28 29 30 31 32 33 34 35 36 37 38 39 40 41 42 43 44 45 46 47 48 49 50
000
ASUS43 KLOT 141508
RWRIL

ILLINOIS REGIONAL WEATHER ROUNDUP
NATIONAL WEATHER SERVICE CHICAGO/ROMEOVILLE IL
900 AM CST THU DEC 14 2017

NOTE: "FAIR" INDICATES FEW OR NO CLOUDS BELOW 12,000 FEET WITH NO
SIGNIFICANT WEATHER AND/OR OBSTRUCTIONS TO VISIBILITY.

* THESE STATIONS ARE NOT UNDER NWS QUALITY CONTROL. THEY ALSO MAY NOT
  REPORT WEATHER SUCH AS PRECIPITATION OR FOG.

ILZ001-002-007-009-015-016-024-141600-
NORTHWEST ILLINOIS

CITY           SKY/WX    TMP DP  RH WIND       PRES   REMARKS
MOLINE         CLOUDY    24  15  68 E9        30.09R WCI  14
STERLING*        N/A     19  12  74 N6          N/A  WCI  11
SAVANNA*       MOSUNNY   18  11  74 CALM      30.10R
$$

ILZ003-004-008-010-011-017-018-141600-
NORTH CENTRAL ILLINOIS

CITY           SKY/WX    TMP DP  RH WIND       PRES   REMARKS
ROCKFORD       MOSUNNY   18  10  71 N5        30.09R WCI  11
FREEPORT*      CLOUDY    12   8  84 CALM      30.09R
ROCHELLE*      MOSUNNY   17  12  80 N6        30.09R WCI   9
DE KALB*       CLOUDY    15  10  82 N7        30.07R WCI   5
PERU*          CLOUDY    17  10  73 N3        30.10R
$$

ILZ005-006-012>014-019>023-141600-
NORTHEAST ILLINOIS

CITY           SKY/WX    TMP DP  RH WIND       PRES   REMARKS
CHICAGO-OHARE  PTSUNNY   20   9  62 N13       30.06R WCI   7
CHICAGO-MIDWAY PTSUNNY   20  12  71 N12       30.06R WCI   8
AURORA         CLOUDY    18  11  74 N10       30.08R WCI   6
LANSING*       CLOUDY    20  15  79 NW6       30.06R WCI  13
JOLIET*        CLOUDY    21  13  72 N9        30.08R WCI  11
WAUKEGAN       SUNNY     18   9  68 NW9       30.05R WCI   7
DUPAGE AIRPORT CLOUDY    17  11  77 N9        30.06R WCI   6
KANKAKEE*      CLOUDY    19  12  74 NW7       30.08R WCI  10
WHEELING       SUNNY     19  11  70 N9        30.07R WCI   8
MORRIS*        CLOUDY    18  11  75 N6        30.08R WCI  10
ROMEOVILLE*    MOSUNNY   19  12  74 N9        30.07R WCI   8
$$

LMZ740>746-141600-
SOUTHERN LAKE MICHIGAN

STATION/POSITION SKY/WX   TEMP    WIND        PRES    VSBY  WAVE
                          AIR SEA DIR/SP/G                  HT/PER
                          (F)     (DEG/KT/KT) (MB)    (MI)  (FT/S)
HARRISON CRIB              21     320/ 17/ 18   N/A
BURNHAM HARBOR             22     300/  6/  9   N/A
CALUMET HARBOR             19     230/  4/  7 1017.2R
BURNS HARBOR               23     170/ 11/ 16 1017.3R
MICHIGAN CITY              20     160/  7/  8   N/A
$$

ILZ025>027-034>036-040-047-049-050-058-095>099-141600-
WEST-CENTRAL ILLINOIS

CITY           SKY/WX    TMP DP  RH WIND       PRES   REMARKS
QUINCY         CLOUDY    27  17  66 N6        30.08R WCI  20
GALESBURG*     CLOUDY    23  16  73 NE8       30.10R WCI  14
MACOMB*        CLOUDY    25  17  72 NE5       30.12R WCI  19
JACKSONVILLE*  CLOUDY    26  17  68 NE7       30.10R WCI  18
PITTSFIELD*    CLOUDY    28  17  65 NE3       30.10R
$$

ILZ028>032-037-038-041>044-048-051>054-059>061-141600-
CENTRAL ILLINOIS

CITY           SKY/WX    TMP DP  RH WIND       PRES   REMARKS
PONTIAC        MOSUNNY   18  13  81 N7        30.09R WCI   9
BLOOMINGTON    PTSUNNY   20  13  74 N12       30.07R WCI   8
DECATUR        MOSUNNY   24  17  74 N9        30.07R WCI  14
PEORIA         MOSUNNY   22  12  65 N6        30.09R WCI  14
LACON*         CLOUDY    20  12  70 N5        30.10R WCI  13
LINCOLN*       SUNNY     25  17  72 N8        30.09R WCI  16
SPRINGFIELD    PTSUNNY   26  18  71 N7        30.10R WCI  18
TAYLORVILLE    CLOUDY    25  17  71 N9        30.09R WCI  16
$$

ILZ033-039-045-046-055>057-062-063-141600-
EAST-CENTRAL ILLINOIS

CITY           SKY/WX    TMP DP  RH WIND       PRES   REMARKS
CHAMPAIGN      MOSUNNY   25  16  68 N10       30.05R WCI  15
DANVILLE*      FLURRIES  24  18  80 N9        30.02R WCI  14
RANTOUL*       CLOUDY    23  15  71 N12       30.05R WCI  12
MATTOON        CLOUDY    26  19  74 N10       30.05R WCI  16
PARIS*         CLOUDY    27  21  77 N7        30.05R WCI  20
$$

ILZ079-100>102-141600-
SOUTHWEST ILLINOIS

CITY           SKY/WX    TMP DP  RH WIND       PRES   REMARKS
ALTON          CLOUDY    28  19  69 N8        30.08R WCI  20
BELLEVILLE     CLOUDY    30  17  58 N8        30.07R WCI  23
CAHOKIA*       CLOUDY    30  17  58 NE9       30.09R WCI  22
SPARTA*        CLOUDY    30  22  70 N7        30.07R WCI  23
$$

ILZ064>066-069>071-074>076-080>082-084>086-088>090-092>094-141600-
SOUTH-CENTRAL ILLINOIS

CITY           SKY/WX    TMP DP  RH WIND       PRES   REMARKS
CARBONDALE     CLOUDY    32  21  64 N10       30.05R WCI  24
CAIRO*         CLOUDY    36  26  67 N8        30.04R WCI  30
EFFINGHAM*     CLOUDY    28  20  71 NW8       30.08R WCI  20
MARION         CLOUDY    32  21  64 N12       30.05R WCI  23
MT. VERNON     CLOUDY    30  20  66 N5        30.06R WCI  25
CENTRALIA*     CLOUDY    31  21  66 N8        30.05R WCI  24
SALEM*         CLOUDY    31  19  59 N7        30.07R WCI  24
METROPOLIS*    CLOUDY    35  24  64 NE6       30.04R WCI  30
$$

ILZ067-068-072-073-078-083-087-091-141600-
SOUTHEAST ILLINOIS

CITY           SKY/WX    TMP DP  RH WIND       PRES   REMARKS
LAWRENCEVILLE  CLOUDY    30  20  66 NW9       30.05R WCI  22
FLORA*         PTSUNNY   31  20  63 N8        30.06R WCI  24
FAIRFIELD*     PTSUNNY   32  20  60 N5        30.05R WCI  27
HARRISBURG*    CLOUDY    31  20  64 NE9       30.06R WCI  23
ROBINSON*      CLOUDY    29  21  73 NW6       30.06R WCI  23
CARMI*         CLOUDY    31  20  64 N8        30.05R WCI  24
$$

ABBREVIATIONS USED IN REMARKS
   TC - TEMPERATURE IN CELSIUS
  WCI - WIND CHILL INDEX
   HX - HEAT INDEX
  VSB - VISIBILITY
$$




USA.gov is the U.S. government's official web portal to all federal, state and local government web resources and services.